Total_Precipitation_Accumulation
2.11 2.18 2.26 2.28 2.10 2.21 2.38 2.63 2.53 2.60 2.64 2.42 2.13 2.01 2.11 2.13 2.21 2.24 2.18 2.38 2.32 2.33 2.82 2.95 2.63 2.27 2.08 1.79 1.57 1.32 1.18 1.10 0.98 0.79 0.68 0.73 0.78 0.84 0.78 0.68 0.64 0.61 0.52
2.49 2.42 2.29 2.32 2.21 2.21 2.31 2.53 2.61 2.96 2.96 2.88 2.42 2.23 2.27 2.31 2.32 2.43 2.34 2.57 2.46 2.22 2.48 2.77 2.86 2.71 2.45 2.23 1.96 1.67 1.44 1.33 1.18 0.93 0.79 0.74 0.77 0.84 0.81 0.81 0.76 0.71 0.61
2.65 2.56 2.49 2.31 2.30 2.36 2.54 2.62 2.70 2.98 3.00 2.93 2.76 2.58 2.45 2.21 2.09 2.15 2.16 2.30 2.26 2.16 2.28 2.53 2.81 2.92 2.82 2.68 2.52 2.24 1.88 1.60 1.38 1.13 0.93 0.79 0.71 0.78 0.80 0.84 0.86 0.84 0.73
2.69 2.73 2.53 2.28 2.39 2.38 2.55 2.83 2.94 3.10 3.26 3.27 2.99 2.74 2.58 2.41 2.18 2.10 1.97 1.96 2.17 1.84 2.07 2.37 2.56 2.74 3.06 3.22 3.27 3.16 2.68 2.12 1.66 1.42 1.18 0.97 0.84 0.81 0.77 0.82 0.88 0.85 0.76
2.59 2.70 2.51 2.40 2.47 2.66 2.71 2.54 3.08 3.37 3.42 3.42 2.86 2.74 2.40 2.25 2.08 1.94 1.96 1.81 1.90 1.96 2.00 2.03 2.19 2.36 2.90 3.58 3.93 3.97 3.71 2.97 2.29 1.93 1.70 1.47 1.24 1.07 0.88 0.81 0.82 0.77 0.71
2.49 2.72 2.43 2.40 2.56 2.81 2.88 2.96 3.34 3.42 3.28 3.45 2.90 2.53 2.17 1.82 1.74 1.73 1.61 1.62 1.62 1.59 1.72 2.06 2.34 2.11 2.55 3.18 3.53 3.78 4.07 3.94 3.26 2.52 2.18 1.94 1.75 1.47 1.15 0.97 0.90 0.88 0.81
2.63 2.99 2.66 2.84 2.76 2.80 2.84 3.02 3.27 3.22 3.04 3.39 3.41 2.68 1.90 1.48 1.46 1.35 1.31 1.38 1.35 1.42 1.67 2.15 2.46 2.51 2.29 2.29 2.51 2.91 3.53 3.93 3.75 3.12 2.70 2.46 2.31 1.95 1.56 1.33 1.17 1.03 0.95
2.79 2.79 2.97 2.87 2.88 2.95 2.76 2.84 3.15 3.00 2.64 3.04 3.35 3.28 2.44 1.90 1.47 1.04 1.16 1.22 1.32 1.51 1.55 1.64 2.05 2.53 2.40 2.50 2.26 2.11 2.68 3.38 3.84 3.78 3.38 3.01 2.68 2.30 1.97 1.76 1.50 1.26 1.07
2.83 2.87 2.80 2.72 2.80 2.73 2.66 2.66 2.85 2.94 2.73 2.74 3.13 3.46 2.81 2.13 1.68 1.24 1.16 1.11 1.41 1.74 1.72 1.72 1.87 2.21 2.33 2.58 2.70 2.55 2.30 2.49 3.22 4.09 4.18 3.60 2.91 2.39 2.10 2.02 1.95 1.70 1.46
3.08 2.87 2.69 2.59 2.51 2.43 2.53 2.31 2.57 2.76 2.83 2.53 2.67 2.76 2.61 2.50 2.37 1.73 1.34 1.23 1.51 1.73 1.84 1.83 1.89 2.08 2.26 2.59 2.85 2.68 2.16 1.92 2.26 3.27 3.99 3.95 3.38 2.65 2.24 2.26 2.57 2.45 2.01
3.13 2.80 2.72 2.64 2.54 2.41 2.35 2.31 2.51 2.43 2.46 2.44 2.48 2.51 2.56 2.54 2.38 2.13 1.74 1.58 1.53 1.32 1.36 1.53 1.77 2.02 2.13 2.35 2.68 2.56 2.32 2.19 2.10 2.20 2.56 2.96 3.17 2.94 2.68 2.70 3.13 3.37 3.11
2.72 2.53 2.47 2.43 2.32 2.31 2.32 2.31 2.32 2.29 2.32 2.38 2.36 2.34 2.46 2.48 2.43 2.46 2.12 1.85 1.67 1.42 1.37 1.45 1.60 1.77 1.87 1.96 2.01 2.17 2.12 2.08 1.95 1.85 1.85 1.98 2.26 2.59 2.84 3.09 3.51 3.88 4.01
2.00 1.99 2.08 2.11 2.05 2.08 2.11 2.24 2.15 2.07 2.15 2.28 2.24 2.25 2.34 2.35 2.42 2.53 2.42 2.00 1.84 1.65 1.70 1.60 1.50 1.66 1.71 1.88 2.06 2.03 1.77 1.74 1.60 1.54 1.54 1.59 1.76 1.99 2.19 2.43 2.90 3.41 3.82
1.74 1.81 1.91 1.88 1.84 1.87 1.83 2.05 1.92 1.87 1.96 2.01 1.93 2.24 2.25 2.02 2.24 2.39 2.45 2.44 2.22 2.04 2.09 1.88 1.64 1.61 1.74 1.90 2.02 1.96 1.67 1.54 1.34 1.24 1.25 1.26 1.32 1.47 1.67 1.90 2.15 2.44 2.76
1.75 1.81 1.80 1.85 1.85 1.87 1.93 2.03 1.89 1.84 2.02 1.96 1.93 2.15 2.11 1.98 2.07 2.19 2.39 2.55 2.64 2.43 2.28 2.13 1.84 1.68 1.72 1.78 2.00 1.85 1.85 1.69 1.38 1.26 1.20 1.16 1.13 1.20 1.34 1.55 1.73 1.89 2.11
1.81 1.84 1.84 1.93 1.85 1.79 1.82 1.87 1.68 1.70 1.90 1.95 2.03 2.21 2.18 2.09 2.14 2.18 2.33 2.59 2.83 2.81 2.45 2.01 1.84 1.79 1.89 1.84 2.05 1.81 1.75 1.77 1.50 1.28 1.17 1.18 1.16 1.17 1.22 1.38 1.55 1.69 1.83
1.83 1.78 1.75 1.77 1.75 1.71 1.75 1.79 1.62 1.75 1.88 1.92 1.93 2.08 2.14 2.25 2.29 2.29 2.41 2.54 2.77 3.00 2.70 2.19 2.08 2.08 2.20 2.19 2.09 1.86 1.64 1.56 1.40 1.34 1.19 1.12 1.12 1.16 1.21 1.28 1.41 1.54 1.62
1.82 1.83 1.81 1.78 1.68 1.70 1.87 1.92 1.82 1.91 1.97 1.93 1.96 2.09 2.00 2.17 2.33 2.31 2.41 2.42 2.52 2.83 2.74 2.48 2.42 2.38 2.36 2.28 2.27 2.09 1.76 1.60 1.52 1.50 1.28 1.15 1.13 1.12 1.15 1.18 1.28 1.45 1.57
1.88 1.95 1.96 1.96 1.93 1.96 1.97 2.03 2.12 2.11 2.02 1.93 1.98 1.98 1.95 2.14 2.15 2.26 2.38 2.35 2.33 2.49 2.66 2.61 2.57 2.65 2.61 2.49 2.40 2.22 2.02 1.95 1.66 1.58 1.50 1.39 1.36 1.32 1.30 1.29 1.29 1.36 1.48
1.92 2.02 2.02 2.14 2.30 2.34 2.33 2.27 2.19 2.14 2.08 2.03 2.01 1.96 1.92 1.95 1.99 2.08 2.20 2.28 2.35 2.48 2.61 2.65 2.69 2.81 2.78 2.81 2.77 2.54 2.41 2.32 1.99 1.64 1.64 1.55 1.49 1.38 1.29 1.22 1.19 1.25 1.36
1.80 2.09 2.21 2.28 2.54 2.68 2.51 2.51 2.44 2.35 2.34 2.18 2.05 1.96 1.83 1.84 1.90 1.92 1.89 2.00 2.14 2.28 2.32 2.41 2.51 2.72 2.78 2.87 2.85 2.70 2.57 2.55 2.36 1.93 1.76 1.64 1.58 1.46 1.41 1.37 1.27 1.23 1.26
1.70 1.87 2.01 2.12 2.17 2.02 2.17 2.19 2.17 2.21 2.25 2.14 2.07 2.01 1.86 1.76 1.73 1.69 1.60 1.62 1.70 1.81 2.00 2.23 2.31 2.51 2.70 2.85 3.03 3.09 2.92 2.74 2.59 2.30 2.16 2.03 1.77 1.69 1.51 1.37 1.35 1.17 1.06
1.65 1.74 1.78 1.84 1.81 1.88 1.90 1.69 1.63 1.61 1.78 1.89 1.96 1.95 1.72 1.57 1.64 1.56 1.59 1.55 1.55 1.66 1.77 1.99 2.17 2.26 2.49 2.69 2.93 3.07 3.06 2.94 2.74 2.58 2.44 2.31 1.99 1.78 1.58 1.46 1.38 1.13 0.98
1.72 1.71 1.75 1.80 1.88 1.87 1.76 1.53 1.50 1.46 1.60 1.72 1.79 1.82 1.79 1.71 1.71 1.74 1.65 1.54 1.46 1.53 1.62 1.59 1.63 1.79 2.06 2.42 2.60 2.65 2.80 2.83 2.69 2.51 2.43 2.40 2.14 1.93 1.71 1.59 1.51 1.23 1.06
1.93 1.88 1.95 1.98 1.96 1.89 1.76 1.54 1.53 1.47 1.59 1.63 1.64 1.66 1.67 1.63 1.71 1.59 1.48 1.45 1.44 1.48 1.46 1.43 1.39 1.43 1.57 1.80 2.13 2.29 2.39 2.36 2.26 2.02 1.89 1.96 1.94 1.90 1.83 1.70 1.53 1.37 1.17
2.35 2.37 2.26 2.10 1.98 1.88 1.85 1.55 1.45 1.40 1.49 1.57 1.65 1.61 1.55 1.43 1.41 1.35 1.32 1.43 1.41 1.40 1.43 1.37 1.28 1.21 1.17 1.32 1.64 1.82 1.91 1.95 1.85 1.79 1.53 1.51 1.54 1.60 1.71 1.58 1.42 1.35 1.27